timestamp,wind_dir_avg,wind_spd_avg,wind_spd_max_dir,wind_spd_gust,battery_voltage,lat,long
2023-10-30 00:04:00+00:00,300.0,9.11,280.0,14.42,12.41,47.59359,-54.27349
2023-10-30 00:14:00+00:00,280.0,11.11,284.0,14.08,12.41,47.59359,-54.27349
2023-10-30 00:24:00+00:00,283.0,11.18,282.0,13.85,12.41,47.59359,-54.27349
2023-10-30 00:34:00+00:00,275.0,11.63,277.0,14.17,12.41,47.59359,-54.27349
2023-10-30 00:44:00+00:00,276.0,12.31,280.0,14.67,12.41,47.59359,-54.27349
2023-10-30 00:54:00+00:00,274.0,8.86,262.0,12.57,12.41,47.59359,-54.27349
2023-10-30 01:04:00+00:00,293.0,9.7,298.0,13.04,12.41,47.59359,-54.27349
2023-10-30 01:14:00+00:00,288.0,8.11,272.0,13.44,12.41,47.59359,-54.27349
2023-10-30 01:24:00+00:00,283.0,8.38,280.0,10.57,12.41,47.59359,-54.27349
2023-10-30 01:34:00+00:00,289.0,10.02,285.0,12.11,12.41,47.59359,-54.27349
2023-10-30 01:44:00+00:00,281.0,10.08,270.0,12.58,12.41,47.59359,-54.27349
2023-10-30 01:54:00+00:00,292.0,10.79,296.0,13.97,12.41,47.59359,-54.27349
2023-10-30 02:04:00+00:00,295.0,8.33,300.0,9.73,12.41,47.59359,-54.27349
2023-10-30 02:14:00+00:00,311.0,10.33,301.0,13.86,12.41,47.59359,-54.27349
2023-10-30 02:24:00+00:00,308.0,9.27,313.0,10.55,12.41,47.59359,-54.27349
2023-10-30 02:34:00+00:00,299.0,7.79,302.0,8.98,12.41,47.59359,-54.27349
2023-10-30 02:44:00+00:00,293.0,7.74,292.0,8.89,12.41,47.59359,-54.27349
2023-10-30 02:54:00+00:00,284.0,7.26,293.0,8.29,12.41,47.59359,-54.27349
2023-10-30 03:04:00+00:00,277.0,8.18,281.0,9.7,12.41,47.59359,-54.27349
2023-10-30 03:14:00+00:00,276.0,8.05,275.0,12.39,12.41,47.59359,-54.27349
2023-10-30 03:24:00+00:00,274.0,8.63,285.0,10.13,12.41,47.59359,-54.27349
2023-10-30 03:34:00+00:00,277.0,7.92,285.0,9.08,12.41,47.59359,-54.27349
2023-10-30 03:44:00+00:00,267.0,8.71,263.0,12.6,12.41,47.59359,-54.27349
2023-10-30 03:54:00+00:00,278.0,8.59,285.0,10.57,12.41,47.59359,-54.27349
2023-10-30 04:04:00+00:00,283.0,8.66,271.0,11.0,12.41,47.59359,-54.27349
2023-10-30 04:14:00+00:00,287.0,9.27,302.0,11.93,12.33,47.59359,-54.27349
2023-10-30 04:24:00+00:00,275.0,7.98,272.0,11.6,12.33,47.59359,-54.27349
2023-10-30 04:34:00+00:00,277.0,8.18,280.0,10.05,12.33,47.59359,-54.27349
2023-10-30 04:44:00+00:00,293.0,8.87,287.0,11.4,12.33,47.59359,-54.27349
2023-10-30 04:54:00+00:00,282.0,7.46,286.0,8.77,12.33,47.59359,-54.27349
2023-10-30 05:04:00+00:00,274.0,8.08,273.0,11.63,12.33,47.59359,-54.27349
2023-10-30 05:14:00+00:00,276.0,7.01,282.0,9.29,12.33,47.59359,-54.27349
2023-10-30 05:24:00+00:00,271.0,7.46,264.0,10.91,12.33,47.59359,-54.27349
2023-10-30 05:34:00+00:00,270.0,7.1,271.0,8.48,12.33,47.59359,-54.27349
2023-10-30 05:44:00+00:00,289.0,7.67,294.0,9.59,12.33,47.59359,-54.27349
2023-10-30 05:54:00+00:00,297.0,8.85,308.0,10.18,12.33,47.59359,-54.27349
2023-10-30 06:04:00+00:00,287.0,8.61,288.0,9.58,12.33,47.59359,-54.27349
2023-10-30 06:14:01+00:00,286.0,9.49,286.0,10.76,12.33,47.59359,-54.27349
2023-10-30 06:24:01+00:00,286.0,8.32,278.0,11.13,12.33,47.59359,-54.27349
2023-10-30 06:34:01+00:00,295.0,9.28,300.0,10.67,12.33,47.59359,-54.27349
2023-10-30 06:44:01+00:00,286.0,8.73,289.0,10.38,12.33,47.59359,-54.27349
2023-10-30 06:54:01+00:00,280.0,8.03,284.0,9.36,12.33,47.59359,-54.27349
2023-10-30 07:04:01+00:00,282.0,7.56,283.0,8.58,12.33,47.59359,-54.27349
2023-10-30 07:14:00+00:00,278.0,7.51,283.0,11.04,12.33,47.59359,-54.27349
2023-10-30 07:24:00+00:00,295.0,7.95,303.0,8.99,12.33,47.59359,-54.27349
2023-10-30 07:34:00+00:00,291.0,7.28,293.0,8.3,12.33,47.59359,-54.27349
2023-10-30 07:44:00+00:00,300.0,8.57,303.0,10.43,12.33,47.59359,-54.27349
2023-10-30 07:54:00+00:00,297.0,8.1,304.0,9.47,12.33,47.59359,-54.27349
2023-10-30 08:04:00+00:00,298.0,7.7,304.0,8.38,12.33,47.59359,-54.27349
2023-10-30 08:14:00+00:00,287.0,6.86,284.0,8.32,12.33,47.59359,-54.27349
2023-10-30 08:24:00+00:00,288.0,7.21,294.0,8.13,12.33,47.59359,-54.27349
2023-10-30 08:34:00+00:00,286.0,7.22,287.0,8.54,12.33,47.59359,-54.27349
2023-10-30 08:44:00+00:00,281.0,7.21,279.0,8.01,12.33,47.59359,-54.27349
2023-10-30 08:54:00+00:00,274.0,7.48,273.0,7.99,12.33,47.59359,-54.27349
2023-10-30 09:04:00+00:00,273.0,8.49,266.0,10.09,12.33,47.59359,-54.27349
2023-10-30 09:14:00+00:00,281.0,8.44,283.0,9.78,12.25,47.59359,-54.27349
2023-10-30 09:24:00+00:00,292.0,7.88,304.0,9.57,12.25,47.59359,-54.27349
2023-10-30 09:34:00+00:00,281.0,8.18,286.0,9.49,12.25,47.59359,-54.27349
2023-10-30 09:44:00+00:00,288.0,7.41,292.0,8.46,12.25,47.59359,-54.27349
2023-10-30 09:54:00+00:00,287.0,6.6,290.0,7.79,12.25,47.59359,-54.27349
2023-10-30 10:04:00+00:00,280.0,6.14,280.0,7.74,12.25,47.59359,-54.27349
2023-10-30 10:14:00+00:00,272.0,5.32,271.0,6.36,12.25,47.59359,-54.27349
2023-10-30 10:24:00+00:00,275.0,5.77,267.0,7.12,12.25,47.59359,-54.27349
2023-10-30 10:34:00+00:00,261.0,6.12,259.0,8.52,12.25,47.59359,-54.27349
2023-10-30 10:44:00+00:00,268.0,6.01,271.0,7.35,12.25,47.59359,-54.27349
2023-10-30 10:54:00+00:00,261.0,6.55,259.0,8.02,12.25,47.59359,-54.27349
2023-10-30 11:04:00+00:00,256.0,6.25,250.0,8.3,12.25,47.59359,-54.27349
2023-10-30 11:14:00+00:00,263.0,5.27,257.0,7.21,13.92,47.59359,-54.27349
2023-10-30 11:24:00+00:00,267.0,6.08,268.0,9.5,13.92,47.59359,-54.27349
2023-10-30 11:34:00+00:00,277.0,6.33,280.0,7.7,13.92,47.59359,-54.27349
2023-10-30 11:44:00+00:00,281.0,7.36,282.0,8.49,13.92,47.59359,-54.27349
2023-10-30 11:54:00+00:00,283.0,5.57,285.0,7.2,13.92,47.59359,-54.27349
2023-10-30 12:04:00+00:00,288.0,6.96,290.0,8.34,13.92,47.59359,-54.27349
2023-10-30 12:14:00+00:00,291.0,5.34,295.0,6.7,13.68,47.59359,-54.27349
2023-10-30 12:24:00+00:00,284.0,10.03,290.0,12.94,13.68,47.59359,-54.27349
2023-10-30 12:34:00+00:00,295.0,8.27,296.0,9.4,13.68,47.59359,-54.27349
2023-10-30 12:44:00+00:00,305.0,8.03,307.0,9.29,13.68,47.59359,-54.27349
2023-10-30 12:54:00+00:00,293.0,8.55,282.0,10.92,13.68,47.59359,-54.27349
2023-10-30 13:04:00+00:00,305.0,8.6,309.0,9.86,13.68,47.59359,-54.27349
2023-10-30 13:14:00+00:00,300.0,8.86,306.0,9.98,13.76,47.59359,-54.27349
2023-10-30 13:24:00+00:00,305.0,8.88,314.0,10.04,13.76,47.59359,-54.27349
2023-10-30 13:34:00+00:00,308.0,9.12,309.0,10.7,13.76,47.59359,-54.27349
2023-10-30 13:44:00+00:00,308.0,10.42,305.0,11.69,13.76,47.59359,-54.27349
2023-10-30 13:54:00+00:00,303.0,10.33,301.0,11.5,13.76,47.59359,-54.27349
2023-10-30 14:04:00+00:00,301.0,10.53,300.0,12.15,13.76,47.59359,-54.27349
2023-10-30 14:14:00+00:00,305.0,8.56,311.0,9.94,14.24,47.59359,-54.27349
2023-10-30 14:24:00+00:00,284.0,8.12,294.0,10.36,14.24,47.59359,-54.27349
2023-10-30 14:34:00+00:00,293.0,7.6,294.0,8.84,14.24,47.59359,-54.27349
2023-10-30 14:44:00+00:00,299.0,7.59,302.0,8.48,14.24,47.59359,-54.27349
2023-10-30 14:54:00+00:00,292.0,7.99,286.0,9.35,14.24,47.59359,-54.27349
2023-10-30 15:04:00+00:00,285.0,7.69,289.0,8.75,14.24,47.59359,-54.27349
2023-10-30 15:14:00+00:00,304.0,8.66,305.0,9.5,13.84,47.59359,-54.27349
2023-10-30 15:24:00+00:00,292.0,7.81,294.0,8.5,13.84,47.59359,-54.27349
2023-10-30 15:34:00+00:00,302.0,6.25,288.0,8.01,13.84,47.59359,-54.27349
2023-10-30 15:44:00+00:00,296.0,5.82,306.0,7.1,13.84,47.59359,-54.27349
2023-10-30 15:54:00+00:00,273.0,8.29,268.0,8.92,13.84,47.59359,-54.27349
2023-10-30 16:04:00+00:00,302.0,8.56,306.0,9.5,13.84,47.59359,-54.27349
2023-10-30 16:14:00+00:00,287.0,9.29,286.0,10.4,13.6,47.59359,-54.27349
2023-10-30 16:24:00+00:00,296.0,7.75,296.0,8.81,13.6,47.59359,-54.27349
2023-10-30 16:34:00+00:00,293.0,7.73,297.0,9.2,13.6,47.59359,-54.27349
2023-10-30 16:44:00+00:00,283.0,5.76,287.0,6.78,13.6,47.59359,-54.27349
2023-10-30 16:54:00+00:00,285.0,8.31,289.0,9.08,13.6,47.59359,-54.27349
2023-10-30 17:04:00+00:00,299.0,6.34,296.0,7.4,13.6,47.59359,-54.27349
2023-10-30 17:14:00+00:00,278.0,7.45,284.0,8.57,13.76,47.59359,-54.27349
2023-10-30 17:24:00+00:00,284.0,8.21,290.0,8.94,13.76,47.59359,-54.27349
2023-10-30 17:34:00+00:00,274.0,7.02,284.0,9.2,13.76,47.59359,-54.27349
2023-10-30 17:44:00+00:00,269.0,6.03,268.0,6.69,13.76,47.59359,-54.27349
2023-10-30 17:54:00+00:00,273.0,6.74,279.0,7.43,13.76,47.59359,-54.27349
2023-10-30 18:04:00+00:00,274.0,6.74,272.0,7.59,13.76,47.59359,-54.27349
2023-10-30 18:14:00+00:00,284.0,6.15,287.0,7.61,13.44,47.59359,-54.27349
2023-10-30 18:24:00+00:00,282.0,6.0,287.0,6.73,13.44,47.59359,-54.27349
2023-10-30 18:34:00+00:00,285.0,5.35,294.0,6.38,13.44,47.59359,-54.27349
2023-10-30 18:44:00+00:00,272.0,5.97,269.0,6.71,13.44,47.59359,-54.27349
2023-10-30 18:54:00+00:00,264.0,5.47,263.0,5.94,13.44,47.59359,-54.27349
2023-10-30 19:04:00+00:00,279.0,4.6,274.0,6.52,13.44,47.59359,-54.27349
2023-10-30 19:14:00+00:00,273.0,5.94,275.0,6.63,13.13,47.59359,-54.27349
2023-10-30 19:24:00+00:00,277.0,5.65,275.0,6.34,13.13,47.59359,-54.27349
2023-10-30 19:34:00+00:00,279.0,5.69,286.0,7.24,13.13,47.59359,-54.27349
2023-10-30 19:44:00+00:00,263.0,5.22,261.0,6.04,13.13,47.59359,-54.27349
2023-10-30 19:54:00+00:00,272.0,5.95,281.0,7.02,13.13,47.59359,-54.27349
2023-10-30 20:04:00+00:00,303.0,4.36,306.0,6.07,13.13,47.59359,-54.27349
2023-10-30 20:14:00+00:00,245.0,6.63,235.0,7.55,12.57,47.59359,-54.27349
2023-10-30 20:24:00+00:00,255.0,5.21,257.0,6.74,12.57,47.59359,-54.27349
2023-10-30 20:34:00+00:00,276.0,6.04,273.0,6.62,12.57,47.59359,-54.27349
2023-10-30 20:44:00+00:00,249.0,8.04,241.0,8.93,12.57,47.59359,-54.27349
2023-10-30 20:54:00+00:00,267.0,7.03,273.0,7.76,12.57,47.59359,-54.27349
2023-10-30 21:04:00+00:00,256.0,6.14,260.0,7.12,12.57,47.59359,-54.27349
2023-10-30 21:14:00+00:00,258.0,5.58,260.0,6.62,12.49,47.59359,-54.27349
2023-10-30 21:24:00+00:00,278.0,4.81,284.0,5.75,12.49,47.59359,-54.27349
2023-10-30 21:34:00+00:00,279.0,4.37,278.0,5.41,12.49,47.59359,-54.27349
2023-10-30 21:44:00+00:00,283.0,3.82,279.0,4.76,12.49,47.59359,-54.27349
2023-10-30 21:54:00+00:00,281.0,3.95,276.0,4.78,12.49,47.59359,-54.27349
2023-10-30 22:04:00+00:00,294.0,2.98,294.0,3.64,12.49,47.59359,-54.27349
2023-10-30 22:14:01+00:00,303.0,2.67,304.0,3.34,12.41,47.59359,-54.27349
2023-10-30 22:24:01+00:00,301.0,1.67,286.0,2.45,12.41,47.59359,-54.27349
2023-10-30 22:34:01+00:00,328.0,2.28,335.0,3.47,12.41,47.59359,-54.27349
2023-10-30 22:44:01+00:00,331.0,2.4,333.0,3.04,12.41,47.59359,-54.27349
2023-10-30 22:54:01+00:00,311.0,2.45,327.0,3.02,12.41,47.59359,-54.27349
2023-10-30 23:04:01+00:00,349.0,2.18,351.0,2.88,12.41,47.59359,-54.27349
2023-10-30 23:14:00+00:00,14.0,1.77,17.0,2.06,12.41,47.59359,-54.27349
2023-10-30 23:24:00+00:00,23.0,1.92,23.0,2.6,12.41,47.59359,-54.27349
2023-10-30 23:34:00+00:00,40.0,2.7,43.0,3.56,12.41,47.59359,-54.27349
2023-10-30 23:44:00+00:00,67.0,1.76,68.0,2.64,12.41,47.59359,-54.27349
2023-10-30 23:54:00+00:00,57.0,1.84,56.0,2.79,12.41,47.59359,-54.27349
